Weather History for Clinton, BC

Change the Weather History Date:

Friday, February 14, 2014

  Actual Average Record
Temperature  
Mean Temperature 35 °F -  
Max Temperature 44 °F 31 °F 44 °F (2014)
Min Temperature 26 °F 15 °F -2 °F (2000)
Degree Days  
Heating Degree Days 30    
Moisture  
Dew Point 19 °F    
Average Humidity 63    
Maximum Humidity 74    
Minimum Humidity 32    
Precipitation  
Precipitation 0.02 in - - ()
Sea Level Pressure  
Sea Level Pressure 29.51 in    
Wind  
Wind Speed 7 mph ()    
Max Wind Speed 14 mph    
Max Gust Speed 25 mph    
Visibility 7.3 miles    
Events      
Averages and records for this station are not official NWS values.
T = Trace of Precipitation, MM = Missing Value Source: Averaged Metar Reports

Daily Weather History Graph

Daily Weather History Graph

Search for Another Location

Airport:

Trip Planner

Search our weather history database for the weather conditions in past years. The results will help you decide how hot, cold, wet, or windy it might be!

Date:

Astronomy

Feb. 14, 2014 Rise Set
Actual Time 7:20 AM PST 5:20 PM PST
Civil Twilight 6:46 AM PST 5:54 PM PST
Nautical Twilight 6:07 AM PST 6:33 PM PST
Astronomical Twilight 5:29 AM PST 7:12 PM PST
Moon 5:35 PM PST (2/14) 6:46 AM PST (2/14)
Length of Visible Light 11h 08m
Length of Day
9h 59m
Full, 100% of the Moon is Illuminated
Feb 14
Full
Feb 14
Full
Feb 22
Last Quarter
Mar 1
New
Mar 8
First Quarter

Hourly Weather History & Observations

Time (PST) Temp. Windchill Dew Point Humidity Pressure Visibility Wind Dir Wind Speed Gust Speed Precip Events Conditions
12:00 AM 28.4 °F 20.4 °F 14.0 °F 55% 29.78 in 9.0 mi South 8.1 mph - N/A   Unknown
1:00 AM 28 °F - 15 °F 45% 29.73 in 9 mi South 6.9 mph - -  
1:00 AM 28.4 °F 22.2 °F 15.8 °F 59% 29.73 in 9.0 mi South 5.8 mph - N/A   Unknown
2:00 AM 28.4 °F 22.2 °F 15.8 °F 59% 29.71 in 9.0 mi SSE 5.8 mph - N/A   Unknown
3:00 AM 28.4 °F 19.7 °F 15.8 °F 59% 29.67 in 9.0 mi South 9.2 mph 17.3 mph N/A   Unknown
4:00 AM 28 °F - 16 °F 47% 29.58 in 9 mi SSE 8.1 mph - -  
4:00 AM 28.4 °F 20.4 °F 15.8 °F 59% 29.58 in 9.0 mi SSE 8.1 mph - N/A   Unknown
5:00 AM 28.4 °F 21.2 °F 15.8 °F 59% 29.55 in 9.0 mi South 6.9 mph - N/A   Unknown
5:06 AM 28.4 °F 20.4 °F 15.8 °F 59% 29.45 in 2.2 mi South 8.1 mph - N/A   Unknown
5:08 AM 28.4 °F 18.5 °F 17.6 °F 64% 29.45 in 1.2 mi South 11.5 mph 17.3 mph N/A   Unknown
5:10 AM 28.4 °F 19.1 °F 17.6 °F 64% 29.45 in 0.8 mi South 10.4 mph 17.3 mph N/A   Unknown
5:11 AM 28.4 °F 18.0 °F 17.6 °F 64% 29.45 in 0.6 mi South 12.7 mph - N/A   Unknown
5:13 AM 28.4 °F 19.7 °F 17.6 °F 64% 29.45 in 0.5 mi South 9.2 mph 17.3 mph N/A   Unknown
5:15 AM 26.6 °F 16.8 °F 19.4 °F 74% 29.45 in 0.4 mi South 10.4 mph 17.3 mph N/A   Unknown
5:41 AM 26.6 °F 17.5 °F 19.4 °F 74% 29.42 in 0.8 mi South 9.2 mph 17.3 mph N/A   Unknown
5:56 AM 26.6 °F 18.2 °F 19.4 °F 74% 29.41 in 1.5 mi SSE 8.1 mph 17.3 mph N/A   Unknown
6:00 AM 26.6 °F 21.2 °F 19.4 °F 74% 29.50 in 2.0 mi SE 4.6 mph - N/A   Unknown
6:31 AM 26.6 °F 19.1 °F 19.4 °F 74% 29.38 in 6.0 mi SSE 6.9 mph - N/A   Unknown
6:53 AM 26.6 °F 21.2 °F 19.4 °F 74% 29.38 in 9.0 mi South 4.6 mph - N/A   Unknown
7:00 AM 27 °F - 19 °F 62% 29.48 in 9 mi SSE 5.8 mph - -  
7:00 AM 26.6 °F 21.2 °F 19.4 °F 74% 29.48 in 9.0 mi SSE 4.6 mph - N/A   Unknown
7:10 AM 26.6 °F 19.1 °F 19.4 °F 74% 29.38 in 6.0 mi South 6.9 mph - N/A   Unknown
7:16 AM 26.6 °F 17.5 °F 19.4 °F 74% 29.38 in 2.5 mi SSE 9.2 mph - N/A   Unknown
7:22 AM 26.6 °F 18.2 °F 19.4 °F 74% 29.37 in 1.8 mi South 8.1 mph - N/A   Unknown
7:33 AM 26.6 °F 22.6 °F 19.4 °F 74% 29.37 in 2.5 mi SSE 3.5 mph - N/A   Unknown
7:40 AM 26.6 °F 22.6 °F 19.4 °F 74% 29.37 in 5.0 mi South 3.5 mph - N/A   Unknown
7:43 AM 26.6 °F 20.0 °F 19.4 °F 74% 29.37 in 5.0 mi South 5.8 mph - N/A   Unknown
7:54 AM 26.6 °F 21.2 °F 19.4 °F 74% 29.37 in 8.0 mi South 4.6 mph - N/A   Unknown
7:59 AM 26.6 °F 21.2 °F 19.4 °F 74% 29.37 in 9.0 mi SSE 4.6 mph - N/A   Unknown
8:00 AM 26.6 °F 20.0 °F 19.4 °F 74% 29.49 in 9.0 mi SSE 5.8 mph - N/A   Unknown
8:06 AM 26.6 °F 21.2 °F 19.4 °F 74% 29.37 in 9.0 mi SSE 4.6 mph - N/A   Unknown
8:16 AM 26.6 °F 20.0 °F 19.4 °F 74% 29.38 in 9.0 mi South 5.8 mph - N/A   Unknown
8:17 AM 26.6 °F 20.0 °F 19.4 °F 74% 29.38 in 9.0 mi South 5.8 mph - N/A   Unknown
8:19 AM 26.6 °F 20.0 °F 19.4 °F 74% 29.38 in 9.0 mi South 5.8 mph - N/A   Unknown
8:22 AM 26.6 °F 21.2 °F 19.4 °F 74% 29.38 in 9.0 mi South 4.6 mph - N/A   Unknown
8:37 AM 26.6 °F 20.0 °F 19.4 °F 74% 29.38 in 9.0 mi South 5.8 mph - N/A   Unknown
8:49 AM 28.4 °F - 19.4 °F 69% 29.38 in 5.0 mi SSE 2.3 mph - N/A   Unknown
9:00 AM 28.4 °F 22.2 °F 21.2 °F 74% 29.47 in 9.0 mi SSE 5.8 mph - N/A   Unknown
9:01 AM 28.4 °F 23.3 °F 21.2 °F 74% 29.37 in 9.0 mi SSE 4.6 mph - N/A   Unknown
9:06 AM 28.4 °F 21.2 °F 21.2 °F 74% 29.36 in 9.0 mi SW 6.9 mph - N/A   Unknown
9:28 AM 32.0 °F 24.8 °F 23.0 °F 69% 29.37 in 9.0 mi South 8.1 mph - N/A   Unknown
9:37 AM 32.0 °F 23.6 °F 23.0 °F 69% 29.37 in 9.0 mi South 10.4 mph 18.4 mph N/A   Unknown
10:00 AM 32 °F - 22 °F 57% 29.47 in 9 mi SSE 9.2 mph - -  
10:00 AM 32.0 °F 23.6 °F 23.0 °F 69% 29.47 in 9.0 mi SSE 10.4 mph 18.4 mph N/A   Unknown
10:06 AM 33.8 °F 24.8 °F 23.0 °F 65% 29.38 in 9.0 mi South 12.7 mph 19.6 mph N/A   Unknown
10:13 AM 32.0 °F 22.1 °F 23.0 °F 69% 29.39 in 9.0 mi South 13.8 mph 21.9 mph N/A   Unknown
10:28 AM 33.8 °F 25.3 °F 23.0 °F 65% 29.39 in 9.0 mi SSE 11.5 mph 19.6 mph N/A   Unknown
11:00 AM 35.6 °F 28.6 °F 23.0 °F 60% 29.50 in 9.0 mi South 9.2 mph 18.4 mph N/A   Unknown
12:00 PM 37.4 °F 31.4 °F 23.0 °F 56% 29.51 in 9.0 mi South 8.1 mph - N/A   Unknown
1:00 PM 37 °F - 23 °F 44% 29.55 in 9 mi South 5.8 mph - -  
1:00 PM 37.4 °F 34.9 °F 23.0 °F 56% 29.55 in 9.0 mi SW 3.5 mph - N/A   Unknown
2:00 PM 42.8 °F 38.0 °F 21.2 °F 42% 29.57 in 9.0 mi SSW 8.1 mph 23.0 mph N/A   Unknown
3:00 PM 41.0 °F 33.9 °F 21.2 °F 45% 29.60 in 9.0 mi SW 12.7 mph - N/A   Unknown
4:00 PM 39 °F - 19 °F 32% 29.63 in 9 mi WSW 8.1 mph - -  
4:00 PM 39.2 °F 33.6 °F 19.4 °F 45% 29.63 in 9.0 mi WSW 8.1 mph 17.3 mph N/A   Unknown
5:00 PM 37.4 °F 30.3 °F 19.4 °F 48% 29.65 in 9.0 mi SW 10.4 mph 25.3 mph N/A   Unknown
6:00 PM 37.4 °F 31.4 °F 17.6 °F 45% 29.70 in 9.0 mi SW 8.1 mph 17.3 mph N/A   Unknown
7:00 PM 33 °F - 18 °F 41% 29.75 in 9 mi WSW 8.1 mph - -  
7:00 PM 33.8 °F 27.0 °F 17.6 °F 52% 29.75 in 9.0 mi WSW 8.1 mph - N/A   Unknown
8:00 PM 33.8 °F 27.7 °F 17.6 °F 52% 29.76 in 9.0 mi SW 6.9 mph - N/A   Unknown
9:00 PM 30.2 °F 24.3 °F 15.8 °F 55% 29.80 in 9.0 mi SW 5.8 mph - N/A   Unknown
10:00 PM 33 °F - 19 °F 44% 29.81 in 9 mi South 4.6 mph - -  
10:00 PM 32.0 °F 27.5 °F 19.4 °F 60% 29.81 in 9.0 mi South 4.6 mph - N/A   Unknown
11:00 PM 32.0 °F 24.2 °F 19.4 °F 60% 29.82 in 9.0 mi SSW 9.2 mph - N/A   Unknown